Location: Unspecified
(40.7945°N, 0.0000°E)
Time: 14:03:07
(UTC+00:00)

SR - Visible Passes

Search period start: 23 January 2021 00:00
Search period end: 02 February 2021 00:00
Orbit: 575 x 880 km, 66.7° (Epoch: 22 January)

Date Brightness Start Highest point End Pass type
(mag) Time Alt. Az. Time Alt. Az. Time Alt. Az.
23 Jan ? 04:38:31 42° NE 04:38:31 42° NE 04:42:00 10° NNE visible
23 Jan ? 06:17:57 15° WNW 06:19:38 18° NW 06:23:07 10° N visible
24 Jan ? 03:50:43 16° NE 03:50:43 16° NE 03:51:53 10° NE visible
24 Jan ? 05:30:10 29° NNW 05:30:10 29° NNW 05:34:00 10° NNE visible
25 Jan ? 04:42:12 25° NNE 04:42:12 25° NNE 04:44:32 10° NNE visible
25 Jan ? 06:21:38 11° NW 06:22:45 11° NW 06:24:18 10° NNW visible
26 Jan ? 03:54:09 13° NE 03:54:09 13° NE 03:54:46 10° NE visible
26 Jan ? 05:33:33 17° NNW 05:33:33 17° NNW 05:36:00 10° N visible
27 Jan ? 04:45:24 17° N 04:45:24 17° N 04:46:50 10° NNE visible
28 Jan ? 03:57:10 11° NNE 03:57:10 11° NNE 03:57:20 10° NNE visible
28 Jan ? 05:36:34 11° NNW 05:36:34 11° NNW 05:37:23 10° NNW visible
29 Jan ? 04:48:16 12° N 04:48:16 12° N 04:48:52 10° N visible
